Weather History for KHCO - January, 2013

Change the Weather History Date:

Monday, January 28, 2013

  Actual Average Record
Temperature  
Mean Temperature 18 °F -  
Max Temperature 21 °F 12 °F 40 °F (1976)
Min Temperature 14 °F -9 °F -42 °F (1966)
Degree Days  
Heating Degree Days 48    
Moisture  
Dew Point 16 °F    
Average Humidity 92    
Maximum Humidity 100    
Minimum Humidity 86    
Precipitation  
Precipitation 0.01 in - - ()
Sea Level Pressure  
Sea Level Pressure 29.77 in    
Wind  
Wind Speed 2 mph (SSW)    
Max Wind Speed 8 mph    
Max Gust Speed -    
Visibility 5 miles    
Events Snow    
Averages and records for this station are not official NWS values.
T = Trace of Precipitation, MM = Missing Value Source: NWS Daily Summary

Daily Weather History Graph

Daily Weather History Graph

Search for Another Location

Airport or City:

Trip Planner

Search our weather history database for the weather conditions in past years. The results will help you decide how hot, cold, wet, or windy it might be!

Date:

Astronomy

Jan. 28, 2013 Rise Set
Actual Time 8:02 AM CST 5:19 PM CST
Civil Twilight 7:28 AM CST 5:54 PM CST
Nautical Twilight 6:50 AM CST 6:32 PM CST
Astronomical Twilight 6:12 AM CST 7:09 PM CST
Moon 7:30 PM CST (1/28) 8:16 AM CST (1/28)
Length of Visible Light 10h 25m
Length of Day
9h 17m
Full, 98% of the Moon is Illuminated
Jan 28
Full
Feb 3
Last Quarter
Feb 10
New
Feb 17
First Quarter
Feb 25
Full

Hourly Weather History & Observations

Time (CST) Temp. Windchill Dew Point Humidity Pressure Visibility Wind Dir Wind Speed Gust Speed Precip Events Conditions
12:14 AM 15.8 °F 8.6 °F 12.2 °F 86% 29.79 in 10.0 mi WNW 4.6 mph - N/A   Overcast
12:34 AM 15.8 °F - 12.2 °F 86% 29.79 in 10.0 mi Calm Calm - N/A   Overcast
12:54 AM 15.8 °F - 12.2 °F 86% 29.79 in 10.0 mi Calm Calm - N/A   Overcast
1:14 AM 15.8 °F 10.2 °F 12.2 °F 86% 29.79 in 10.0 mi NW 3.5 mph - N/A   Overcast
1:34 AM 15.8 °F 8.6 °F 12.2 °F 86% 29.79 in 10.0 mi NW 4.6 mph - N/A   Overcast
1:54 AM 14.0 °F 5.1 °F 12.2 °F 93% 29.80 in 10.0 mi NW 5.8 mph - N/A   Overcast
2:14 AM 15.8 °F - 12.2 °F 86% 29.80 in 10.0 mi Calm Calm - N/A   Overcast
2:34 AM 15.8 °F - 12.2 °F 86% 29.79 in 10.0 mi Calm Calm - N/A   Overcast
2:54 AM 15.8 °F 8.6 °F 12.2 °F 86% 29.80 in 10.0 mi NNW 4.6 mph - N/A   Overcast
3:14 AM 15.8 °F - 12.2 °F 86% 29.79 in 10.0 mi Calm Calm - N/A   Overcast
3:34 AM 15.8 °F - 12.2 °F 86% 29.79 in 10.0 mi Calm Calm - N/A   Overcast
3:54 AM 15.8 °F 8.6 °F 12.2 °F 86% 29.77 in 10.0 mi East 4.6 mph - N/A   Overcast
4:14 AM 15.8 °F 8.6 °F 12.2 °F 86% 29.77 in 10.0 mi East 4.6 mph - N/A   Overcast
4:34 AM 17.6 °F 12.3 °F 14.0 °F 86% 29.78 in 10.0 mi NW 3.5 mph - N/A   Overcast
4:54 AM 15.8 °F - 12.2 °F 86% 29.77 in 10.0 mi Calm Calm - N/A   Overcast
5:14 AM 15.8 °F 10.2 °F 12.2 °F 86% 29.76 in 7.0 mi NW 3.5 mph - N/A   Overcast
5:54 AM 15.8 °F 6.1 °F 12.2 °F 86% 29.79 in 7.0 mi West 6.9 mph - N/A   Overcast
6:34 AM 15.8 °F 10.2 °F 14.0 °F 93% 29.80 in 1.5 mi West 3.5 mph - N/A   Overcast
6:54 AM 15.8 °F - 15.8 °F 100% 29.79 in 0.8 mi Calm Calm - N/A   Overcast
7:14 AM 15.8 °F 8.6 °F 15.8 °F 100% 29.77 in 1.0 mi East 4.6 mph - N/A Snow Light Snow
7:34 AM 17.6 °F - 15.8 °F 93% 29.77 in 1.0 mi Calm Calm - N/A Snow Light Snow
7:54 AM 17.6 °F - 15.8 °F 93% 29.77 in 4.0 mi Calm Calm - 0.01 in Snow Light Snow
8:14 AM 17.6 °F 12.3 °F 15.8 °F 93% 29.78 in 3.0 mi West 3.5 mph - N/A Snow Light Snow
8:34 AM 17.6 °F - 15.8 °F 93% 29.77 in 4.0 mi Calm Calm - N/A   Overcast
8:54 AM 17.6 °F - 15.8 °F 93% 29.77 in 4.0 mi Calm Calm - N/A   Overcast
9:14 AM 17.6 °F 12.3 °F 15.8 °F 93% 29.80 in 4.0 mi SW 3.5 mph - N/A   Overcast
9:34 AM 17.6 °F - 15.8 °F 93% 29.79 in 4.0 mi Calm Calm - N/A   Overcast
9:54 AM 17.6 °F - 15.8 °F 93% 29.78 in 4.0 mi Calm Calm - N/A   Overcast
10:14 AM 17.6 °F - 15.8 °F 93% 29.78 in 4.0 mi Calm Calm - N/A   Overcast
10:34 AM 17.6 °F 10.7 °F 15.8 °F 93% 29.80 in 4.0 mi South 4.6 mph - N/A   Overcast
10:54 AM 17.6 °F 8.2 °F 17.6 °F 100% 29.78 in 4.0 mi SSE 6.9 mph - N/A   Overcast
11:34 AM 19.4 °F 14.3 °F 17.6 °F 93% 29.78 in 3.0 mi SSE 3.5 mph - N/A   Overcast
11:54 AM 19.4 °F - 17.6 °F 93% 29.77 in 3.0 mi Calm Calm - N/A   Overcast
12:14 PM 19.4 °F 14.3 °F 17.6 °F 93% 29.79 in 3.0 mi WSW 3.5 mph - N/A   Overcast
12:34 PM 19.4 °F 11.5 °F 17.6 °F 93% 29.79 in 3.0 mi WSW 5.8 mph - N/A   Overcast
12:54 PM 19.4 °F 12.8 °F 17.6 °F 93% 29.79 in 4.0 mi WSW 4.6 mph - N/A   Overcast
1:14 PM 19.4 °F 14.3 °F 17.6 °F 93% 29.79 in 4.0 mi SSW 3.5 mph - N/A   Overcast
1:34 PM 19.4 °F 14.3 °F 17.6 °F 93% 29.78 in 4.0 mi South 3.5 mph - N/A   Overcast
1:54 PM 21.2 °F - 19.4 °F 93% 29.78 in 4.0 mi Calm Calm - N/A   Overcast
2:14 PM 21.2 °F 16.4 °F 17.6 °F 86% 29.76 in 4.0 mi SSE 3.5 mph - N/A   Overcast
2:34 PM 21.2 °F 16.4 °F 19.4 °F 93% 29.77 in 4.0 mi South 3.5 mph - N/A   Overcast
2:54 PM 21.2 °F - 19.4 °F 93% 29.76 in 5.0 mi Calm Calm - N/A   Overcast
3:14 PM 21.2 °F - 19.4 °F 93% 29.78 in 5.0 mi Calm Calm - N/A   Mostly Cloudy
3:34 PM 21.2 °F 16.4 °F 19.4 °F 93% 29.79 in 4.0 mi South 3.5 mph - N/A   Clear
3:53 PM 21.2 °F - 19.4 °F 93% 29.77 in 4.0 mi Calm Calm - N/A   Clear
4:14 PM 21.2 °F - 19.4 °F 93% 29.75 in 4.0 mi Calm Calm - N/A   Clear
4:34 PM 21.2 °F - 19.4 °F 93% 29.76 in 4.0 mi Calm Calm - N/A   Clear
4:53 PM 19.4 °F - 17.6 °F 93% 29.76 in 2.5 mi Calm Calm - N/A   Clear
5:14 PM 17.6 °F 10.7 °F 15.8 °F 93% 29.77 in 2.5 mi SSE 4.6 mph - N/A   Clear
5:34 PM 17.6 °F - 15.8 °F 93% 29.76 in 2.5 mi Calm Calm - N/A   Clear
5:54 PM 19.4 °F 11.5 °F 17.6 °F 93% 29.77 in 4.0 mi SSE 5.8 mph - N/A   Clear
6:14 PM 17.6 °F 7.3 °F 17.6 °F 100% 29.77 in 4.0 mi SSE 8.1 mph - N/A   Clear
6:34 PM 19.4 °F 10.4 °F 17.6 °F 93% 29.76 in 4.0 mi SSE 6.9 mph - N/A   Clear
6:54 PM 19.4 °F 11.5 °F 17.6 °F 93% 29.76 in 4.0 mi SSE 5.8 mph - N/A   Clear
7:14 PM 19.4 °F 10.4 °F 17.6 °F 93% 29.76 in 5.0 mi SSE 6.9 mph - N/A   Clear
7:34 PM 17.6 °F 12.3 °F 17.6 °F 100% 29.78 in 5.0 mi SSW 3.5 mph - N/A   Clear
7:54 PM 17.6 °F - 17.6 °F 100% 29.78 in 4.0 mi Calm Calm - N/A   Clear
8:14 PM 17.6 °F - 17.6 °F 100% 29.77 in 4.0 mi Calm Calm - N/A   Clear
8:34 PM 17.6 °F - 17.6 °F 100% 29.78 in 4.0 mi Calm Calm - N/A   Clear
8:54 PM 17.6 °F - 15.8 °F 93% 29.77 in 3.0 mi Calm Calm - N/A   Clear
9:14 PM 17.6 °F - 15.8 °F 93% 29.77 in 3.0 mi Calm Calm - N/A   Clear
9:34 PM 17.6 °F - 17.6 °F 100% 29.76 in 3.0 mi Calm Calm - N/A   Clear
9:54 PM 19.4 °F - 17.6 °F 93% 29.75 in 3.0 mi Calm Calm - N/A   Clear
10:14 PM 17.6 °F - 17.6 °F 100% 29.75 in 3.0 mi Calm Calm - N/A   Clear
10:34 PM 17.6 °F - 17.6 °F 100% 29.74 in 3.0 mi Calm Calm - N/A   Clear
10:53 PM 17.6 °F - 15.8 °F 93% 29.72 in 2.5 mi Calm Calm - N/A   Clear
11:14 PM 15.8 °F - 15.8 °F 100% 29.73 in 4.0 mi Calm Calm - N/A   Clear
11:33 PM 17.6 °F 12.3 °F 15.8 °F 93% 29.73 in 1.5 mi NW 3.5 mph - N/A   Mist
11:54 PM 15.8 °F - 14.0 °F 93% 29.73 in 0.8 mi Calm Calm - N/A   Mostly Cloudy